Time,TemperatureF,DewpointF,PressureIn,WindDirection,WindDirectionDegrees,WindSpeedMPH,WindSpeedGustMPH,Humidity,HourlyPrecipIn,Conditions,Clouds,dailyrainin,SoftwareType,DateUTC
2013-06-14 00:12:00,50.4,45.0,29.59,NW,325,1.0,2.0,82,0.00,,,0.00,weatherlink.com 1.10,2013-06-13 23:12:00,
2013-06-14 00:27:00,50.5,45.0,29.59,SSW,198,1.0,3.0,82,0.00,,,0.00,weatherlink.com 1.10,2013-06-13 23:27:00,
2013-06-14 00:42:00,50.9,45.0,29.59,SW,228,2.0,7.0,80,0.00,,,0.00,weatherlink.com 1.10,2013-06-13 23:42:00,
2013-06-14 00:57:00,51.0,45.0,29.58,South,176,1.0,5.0,80,0.00,,,0.00,weatherlink.com 1.10,2013-06-13 23:57:00,
2013-06-14 01:12:00,50.4,45.0,29.58,South,172,1.0,2.0,82,0.00,,,0.00,weatherlink.com 1.10,2013-06-14 00:12:00,
2013-06-14 01:27:00,51.2,46.0,29.57,SSW,210,2.0,4.0,83,0.00,,,0.00,weatherlink.com 1.10,2013-06-14 00:27:00,
2013-06-14 01:42:00,51.6,47.0,29.57,South,184,0.0,5.0,84,0.00,,,0.00,weatherlink.com 1.10,2013-06-14 00:42:00,
2013-06-14 01:57:00,51.7,47.0,29.56,NNW,347,0.0,3.0,85,0.00,,,0.00,weatherlink.com 1.10,2013-06-14 00:57:00,
2013-06-14 02:12:00,51.8,47.0,29.56,North,352,2.0,5.0,84,0.00,,,0.00,weatherlink.com 1.10,2013-06-14 01:12:00,
2013-06-14 02:27:00,51.9,47.0,29.56,NNE,32,0.0,7.0,83,0.00,,,0.00,weatherlink.com 1.10,2013-06-14 01:27:00,
2013-06-14 02:42:00,52.1,47.0,29.55,WSW,258,4.0,10.0,82,0.00,,,0.00,weatherlink.com 1.10,2013-06-14 01:42:00,
2013-06-14 02:57:00,52.0,46.0,29.55,West,264,8.0,11.0,81,0.00,,,0.00,weatherlink.com 1.10,2013-06-14 01:57:00,
2013-06-14 03:12:00,51.8,47.0,29.55,WSW,243,7.0,11.0,82,0.00,,,0.00,weatherlink.com 1.10,2013-06-14 02:12:00,
2013-06-14 03:27:00,51.8,47.0,29.54,West,271,3.0,7.0,83,0.00,,,0.00,weatherlink.com 1.10,2013-06-14 02:27:00,
2013-06-14 03:42:00,51.8,47.0,29.54,West,271,3.0,9.0,84,0.00,,,0.00,weatherlink.com 1.10,2013-06-14 02:42:00,
2013-06-14 03:57:00,52.0,48.0,29.54,WSW,254,9.0,12.0,86,0.00,,,0.00,weatherlink.com 1.10,2013-06-14 02:57:00,
2013-06-14 04:12:00,51.9,48.0,29.53,West,267,4.0,19.0,87,0.00,,,0.00,weatherlink.com 1.10,2013-06-14 03:12:00,
2013-06-14 04:27:00,51.8,48.0,29.53,WSW,240,9.0,14.0,88,0.00,,,0.00,weatherlink.com 1.10,2013-06-14 03:27:00,
2013-06-14 04:42:00,51.9,48.0,29.53,SSW,207,3.0,13.0,87,0.00,,,0.00,weatherlink.com 1.10,2013-06-14 03:42:00,
2013-06-14 04:57:00,51.8,48.0,29.52,WNW,288,3.0,11.0,88,0.00,,,0.00,weatherlink.com 1.10,2013-06-14 03:57:00,
2013-06-14 05:27:00,52.6,49.0,29.52,WNW,300,7.0,16.0,86,0.00,,,0.00,weatherlink.com 1.10,2013-06-14 04:27:00,
2013-06-14 05:42:00,52.8,49.0,29.51,WNW,297,6.0,16.0,86,0.00,,,0.00,weatherlink.com 1.10,2013-06-14 04:42:00,
2013-06-14 05:57:00,52.9,49.0,29.51,WNW,283,9.0,14.0,85,0.00,,,0.00,weatherlink.com 1.10,2013-06-14 04:57:00,
2013-06-14 06:12:00,53.2,49.0,29.50,West,274,11.0,18.0,85,0.00,,,0.00,weatherlink.com 1.10,2013-06-14 05:12:00,
2013-06-14 06:27:00,53.6,49.0,29.50,SW,235,3.0,14.0,84,0.00,,,0.00,weatherlink.com 1.10,2013-06-14 05:27:00,
2013-06-14 06:43:00,54.2,49.0,29.50,North,350,3.0,19.0,82,0.00,,,0.00,weatherlink.com 1.10,2013-06-14 05:43:00,
2013-06-14 06:58:00,54.7,49.0,29.50,WSW,243,6.0,15.0,81,0.00,,,0.00,weatherlink.com 1.10,2013-06-14 05:58:00,
2013-06-14 07:13:00,55.1,50.0,29.50,West,266,13.0,15.0,82,0.00,,,0.00,weatherlink.com 1.10,2013-06-14 06:13:00,
2013-06-14 07:28:00,55.5,50.0,29.50,SW,236,13.0,16.0,82,0.00,,,0.00,weatherlink.com 1.10,2013-06-14 06:28:00,
2013-06-14 07:58:00,56.6,51.0,29.49,SW,235,14.0,22.0,82,0.00,,,0.00,weatherlink.com 1.10,2013-06-14 06:58:00,
2013-06-14 08:13:00,56.6,51.0,29.48,WSW,245,11.0,19.0,82,0.00,,,0.00,weatherlink.com 1.10,2013-06-14 07:13:00,
2013-06-14 08:28:00,56.7,51.0,29.48,SSW,195,2.0,23.0,82,0.00,,,0.00,weatherlink.com 1.10,2013-06-14 07:28:00,
2013-06-14 08:43:00,58.0,52.0,29.48,South,190,10.0,23.0,81,0.00,,,0.00,weatherlink.com 1.10,2013-06-14 07:43:00,
2013-06-14 08:58:00,59.6,52.0,29.48,SW,233,9.0,15.0,77,0.00,,,0.00,weatherlink.com 1.10,2013-06-14 07:58:00,
2013-06-14 09:13:00,59.5,52.0,29.48,SW,232,10.0,17.0,77,0.00,,,0.00,weatherlink.com 1.10,2013-06-14 08:13:00,
2013-06-14 09:28:00,58.9,53.0,29.48,SW,235,8.0,15.0,82,0.00,,,0.00,weatherlink.com 1.10,2013-06-14 08:28:00,
2013-06-14 09:43:00,58.1,52.0,29.48,WNW,283,3.0,21.0,80,0.00,,,0.00,weatherlink.com 1.10,2013-06-14 08:43:00,
2013-06-14 09:58:00,57.4,51.0,29.47,WNW,293,9.0,18.0,79,0.00,,,0.00,weatherlink.com 1.10,2013-06-14 08:58:00,
2013-06-14 10:13:00,55.4,51.0,29.47,WSW,240,8.0,16.0,84,0.01,,,0.01,weatherlink.com 1.10,2013-06-14 09:13:00,
2013-06-14 10:28:00,56.0,51.0,29.46,NW,311,5.0,17.0,83,0.01,,,0.01,weatherlink.com 1.10,2013-06-14 09:28:00,
2013-06-14 10:43:00,56.4,51.0,29.46,SW,219,5.0,18.0,82,0.01,,,0.01,weatherlink.com 1.10,2013-06-14 09:43:00,
2013-06-14 10:58:00,56.8,51.0,29.46,WNW,283,13.0,17.0,82,0.01,,,0.01,weatherlink.com 1.10,2013-06-14 09:58:00,
2013-06-14 11:13:00,57.9,51.0,29.46,SW,224,3.0,17.0,79,0.00,,,0.01,weatherlink.com 1.10,2013-06-14 10:13:00,
2013-06-14 11:28:00,58.5,52.0,29.46,WSW,246,5.0,16.0,78,0.00,,,0.01,weatherlink.com 1.10,2013-06-14 10:28:00,
2013-06-14 11:43:00,59.8,52.0,29.45,NNW,336,8.0,21.0,74,0.00,,,0.01,weatherlink.com 1.10,2013-06-14 10:43:00,
2013-06-14 11:58:00,61.5,52.0,29.44,SW,224,6.0,20.0,70,0.00,,,0.01,weatherlink.com 1.10,2013-06-14 10:58:00,
2013-06-14 12:13:00,62.2,50.0,29.44,West,259,11.0,25.0,65,0.00,,,0.01,weatherlink.com 1.10,2013-06-14 11:13:00,
2013-06-14 12:29:00,62.8,51.0,29.43,WSW,245,11.0,29.0,66,0.00,,,0.01,weatherlink.com 1.10,2013-06-14 11:29:00,
2013-06-14 12:44:00,62.4,51.0,29.42,WSW,246,9.0,25.0,66,0.00,,,0.01,weatherlink.com 1.10,2013-06-14 11:44:00,
2013-06-14 12:59:00,62.7,51.0,29.42,West,264,11.0,25.0,66,0.00,,,0.01,weatherlink.com 1.10,2013-06-14 11:59:00,
2013-06-14 13:14:00,62.6,51.0,29.41,WSW,243,18.0,23.0,66,0.00,,,0.01,weatherlink.com 1.10,2013-06-14 12:14:00,
2013-06-14 13:29:00,59.1,51.0,29.42,West,269,16.0,27.0,75,0.02,,,0.02,weatherlink.com 1.10,2013-06-14 12:29:00,
2013-06-14 13:44:00,57.5,51.0,29.41,SW,222,12.0,18.0,80,0.02,,,0.02,weatherlink.com 1.10,2013-06-14 12:44:00,
2013-06-14 13:59:00,59.4,52.0,29.40,NNW,335,4.0,23.0,76,0.02,,,0.02,weatherlink.com 1.10,2013-06-14 12:59:00,
2013-06-14 14:14:00,58.7,50.0,29.40,West,275,9.0,22.0,74,0.02,,,0.02,weatherlink.com 1.10,2013-06-14 13:14:00,
2013-06-14 14:29:00,59.6,50.0,29.39,West,274,19.0,24.0,70,0.00,,,0.02,weatherlink.com 1.10,2013-06-14 13:29:00,
2013-06-14 14:44:00,59.5,49.0,29.39,SSW,193,5.0,23.0,68,0.00,,,0.02,weatherlink.com 1.10,2013-06-14 13:44:00,
2013-06-14 14:59:00,58.3,49.0,29.39,WSW,256,11.0,26.0,72,0.00,,,0.02,weatherlink.com 1.10,2013-06-14 13:59:00,
2013-06-14 15:14:00,54.8,49.0,29.39,SSW,207,10.0,20.0,81,0.01,,,0.03,weatherlink.com 1.10,2013-06-14 14:14:00,
2013-06-14 15:29:00,54.8,49.0,29.38,SW,232,7.0,19.0,82,0.02,,,0.04,weatherlink.com 1.10,2013-06-14 14:29:00,
2013-06-14 15:44:00,54.4,49.0,29.38,WSW,240,11.0,18.0,81,0.02,,,0.04,weatherlink.com 1.10,2013-06-14 14:44:00,
2013-06-14 15:59:00,53.4,49.0,29.37,SW,221,9.0,19.0,84,0.02,,,0.05,weatherlink.com 1.10,2013-06-14 14:59:00,
2013-06-14 16:14:00,53.7,48.0,29.36,WSW,240,9.0,15.0,82,0.02,,,0.05,weatherlink.com 1.10,2013-06-14 15:14:00,
2013-06-14 16:29:00,53.8,49.0,29.36,SW,215,11.0,16.0,84,0.01,,,0.05,weatherlink.com 1.10,2013-06-14 15:29:00,
2013-06-14 16:44:00,54.9,49.0,29.34,SW,218,6.0,20.0,81,0.01,,,0.05,weatherlink.com 1.10,2013-06-14 15:44:00,
2013-06-14 16:59:00,55.0,49.0,29.33,SW,219,7.0,18.0,81,0.00,,,0.05,weatherlink.com 1.10,2013-06-14 15:59:00,
2013-06-14 17:14:00,54.5,49.0,29.32,SSW,198,5.0,17.0,83,0.00,,,0.05,weatherlink.com 1.10,2013-06-14 16:14:00,
2013-06-14 17:29:00,55.2,48.0,29.32,WSW,256,11.0,22.0,78,0.00,,,0.05,weatherlink.com 1.10,2013-06-14 16:29:00,
2013-06-14 17:44:00,51.8,49.0,29.31,WSW,243,12.0,27.0,90,0.02,,,0.06,weatherlink.com 1.10,2013-06-14 16:44:00,
2013-06-14 17:59:00,50.6,49.0,29.28,SW,219,9.0,28.0,93,0.03,,,0.08,weatherlink.com 1.10,2013-06-14 16:59:00,
2013-06-14 18:14:00,50.7,49.0,29.26,SW,225,24.0,28.0,94,0.04,,,0.09,weatherlink.com 1.10,2013-06-14 17:14:00,
2013-06-14 18:29:00,50.3,49.0,29.24,South,188,12.0,27.0,95,0.06,,,0.11,weatherlink.com 1.10,2013-06-14 17:29:00,
2013-06-14 18:44:00,50.5,49.0,29.23,WSW,253,7.0,30.0,95,0.06,,,0.13,weatherlink.com 1.10,2013-06-14 17:44:00,
2013-06-14 18:59:00,50.9,50.0,29.22,WSW,240,9.0,25.0,96,0.05,,,0.13,weatherlink.com 1.10,2013-06-14 17:59:00,
2013-06-14 19:15:00,49.6,48.0,29.20,SSW,204,12.0,33.0,95,0.10,,,0.19,weatherlink.com 1.10,2013-06-14 18:15:00,
2013-06-14 19:30:00,48.7,48.0,29.18,SSE,155,18.0,29.0,96,0.14,,,0.25,weatherlink.com 1.10,2013-06-14 18:30:00,
2013-06-14 19:45:00,49.0,48.0,29.15,South,191,11.0,33.0,96,0.16,,,0.28,weatherlink.com 1.10,2013-06-14 18:45:00,
2013-06-14 20:00:00,49.3,48.0,29.14,SW,224,11.0,32.0,96,0.17,,,0.30,weatherlink.com 1.10,2013-06-14 19:00:00,
2013-06-14 20:15:00,50.2,49.0,29.13,SSW,210,10.0,23.0,97,0.11,,,0.31,weatherlink.com 1.10,2013-06-14 19:15:00,
2013-06-14 20:30:00,50.7,50.0,29.11,SSW,207,10.0,22.0,97,0.06,,,0.31,weatherlink.com 1.10,2013-06-14 19:30:00,
2013-06-14 20:45:00,51.9,51.0,29.10,SW,224,20.0,27.0,97,0.04,,,0.33,weatherlink.com 1.10,2013-06-14 19:45:00,
2013-06-14 21:00:00,52.6,52.0,29.09,SSW,210,10.0,24.0,97,0.03,,,0.33,weatherlink.com 1.10,2013-06-14 20:00:00,
2013-06-14 21:15:00,53.0,52.0,29.09,WNW,285,8.0,24.0,97,0.02,,,0.33,weatherlink.com 1.10,2013-06-14 20:15:00,
2013-06-14 21:30:00,53.4,53.0,29.09,West,267,11.0,22.0,97,0.02,,,0.34,weatherlink.com 1.10,2013-06-14 20:30:00,
2013-06-14 21:45:00,50.8,50.0,29.11,WNW,300,10.0,26.0,96,0.06,,,0.39,weatherlink.com 1.10,2013-06-14 20:45:00,
2013-06-14 22:00:00,48.9,48.0,29.14,North,353,8.0,23.0,96,0.06,,,0.39,weatherlink.com 1.10,2013-06-14 21:00:00,
2013-06-14 22:15:00,48.2,47.0,29.14,WNW,302,12.0,22.0,96,0.06,,,0.39,weatherlink.com 1.10,2013-06-14 21:15:00,
2013-06-14 22:30:00,48.1,47.0,29.14,WNW,297,17.0,25.0,97,0.05,,,0.39,weatherlink.com 1.10,2013-06-14 21:30:00,
2013-06-14 22:45:00,48.2,47.0,29.15,WNW,302,6.0,23.0,97,0.01,,,0.39,weatherlink.com 1.10,2013-06-14 21:45:00,
2013-06-14 23:00:00,48.2,47.0,29.16,NW,315,22.0,25.0,97,0.00,,,0.39,weatherlink.com 1.10,2013-06-14 22:00:00,
2013-06-14 23:15:00,48.3,48.0,29.17,WNW,289,13.0,26.0,97,0.02,,,0.41,weatherlink.com 1.10,2013-06-14 22:15:00,
2013-06-14 23:30:00,48.5,47.0,29.18,WNW,294,9.0,20.0,94,0.02,,,0.41,weatherlink.com 1.10,2013-06-14 22:30:00,
2013-06-14 23:45:00,48.8,46.0,29.19,NNW,330,17.0,21.0,91,0.02,,,0.41,weatherlink.com 1.10,2013-06-14 22:45:00,